Torna al catalogo

TITAN 3C TRANSTAGE R/B

AttivoGEO
NORAD 5854·ROCKET BODY·🇺🇸 United States

Lanciato Mar 1, 1972 da Cape Canaveral Space Force Station

Loading…

TLE

AggiornatoSource: Space-Track

Epoca: Sep 14, 2026, 07:56 UTC

1 05854U 72010B   26257.33117759 -.00000110  00000-0  00000-0 0  9993
2 05854   1.1487  89.5702 0063517 341.5935  19.3424  1.00661379 25809

Traccia TITAN 3C TRANSTAGE R/B in tempo reale con AllMySat

Download on the App Store